This demonstration page uses our WeatherBlox Daily Observations layout. Learn more.

Left ArrowRight Arrow

Hourly Observations for July 18, 2015

Temp ( °F °C ) Dew Point ( °F °C ) Humidity (%) Winds ( mph kmh ) Pressure ( in mb ) Visibility ( mi km ) Precip ( " mm )
12:53 am 00:53 Clear 84 28.9 63 17.2 49 49 SE 14 22 29.77 1008 10 16 0.00 0.00
1:53 am 01:53 Clear 82 27.8 63 17.2 53 53 SE 14 22 29.76 1008 10 16 0.00 0.00
2:53 am 02:53 Clear 80 26.7 61 16.1 52 52 SE 14 22 29.75 1008 10 16 0.00 0.00
3:53 am 03:53 Clear 78 25.6 60 15.6 54 54 SE 9 15 29.76 1008 10 16 0.00 0.00
4:53 am 04:53 Clear 77 25 61 16.1 58 58 SE 10 17 29.77 1008 10 16 0.00 0.00
5:53 am 05:53 Clear 76 24.4 62 16.7 62 62 SE 13 20 29.78 1008 10 16 0.00 0.00
6:53 am 06:53 Clear 75 23.9 63 17.2 66 66 SE 13 20 29.79 1009 10 16 0.00 0.00
7:53 am 07:53 Sunny 77 25 64 17.8 64 64 SE 12 19 29.80 1009 10 16 0.00 0.00
8:53 am 08:53 Sunny 80 26.7 64 17.8 58 58 SE 16 26 29.82 1010 10 16 0.00 0.00
9:53 am 09:53 Sunny 85 29.4 63 17.2 48 48 SE 15 24 29.82 1010 10 16 0.00 0.00
10:53 am 10:53 Sunny 89 31.7 61 16.1 39 39 SSE 8 13 29.82 1010 10 16 0.00 0.00
11:53 am 11:53 Sunny 93 33.9 59 15 32 32 Calm 29.82 1010 10 16 0.00 0.00
12:53 pm 12:53 Sunny 96 35.6 57 13.9 27 27 VRB 5 7 29.81 1009 10 16 0.00 0.00
1:53 pm 13:53 Sunny 101 38.3 57 13.9 23 23 VRB 5 7 29.79 1009 10 16 0.00 0.00
2:53 pm 14:53 Sunny 103 39.4 57 13.9 22 22 ESE 8 13 29.77 1008 10 16 0.00 0.00
3:53 pm 15:53 Sunny 104 40 56 13.3 20 20 VRB 6 9 29.75 1008 10 16 0.00 0.00
4:53 pm 16:53 Sunny 105 40.6 52 11.1 17 17 ESE 6 9 29.74 1007 10 16 0.00 0.00
5:53 pm 17:53 Sunny 104 40 51 10.6 17 17 SSW 8 13 29.72 1006 10 16 0.00 0.00
6:53 pm 18:53 Sunny 103 39.4 51 10.6 18 18 ESE 15 24 29.70 1006 10 16 0.00 0.00
7:53 pm 19:53 Sunny 100 37.8 52 11.1 20 20 SE 16 26 29.70 1006 10 16 0.00 0.00
8:53 pm 20:53 Sunny 95 35 54 12.2 25 25 SE 22 35 29.73 1007 10 16 0.00 0.00
9:53 pm 21:53 Clear 92 33.3 54 12.2 28 28 SE 18 30 29.76 1008 10 16 0.00 0.00
10:53 pm 22:53 Clear 89 31.7 57 13.9 34 34 SE 20 31 29.79 1009 10 16 0.00 0.00
11:53 pm 23:53 Clear 86 30 58 14.4 39 39 SE 16 26 29.81 1010 10 16 0.00 0.00

Powered by AerisWeather